Weather History for KLHQ - November, 2010

Change the Weather History Date:

Thursday, November 18, 2010

  Actual Average Record
Temperature  
Mean Temperature 36 °F -  
Max Temperature 43 °F 51 °F 75 °F (1958)
Min Temperature 28 °F 32 °F 11 °F (1959)
Degree Days  
Heating Degree Days 30    
Moisture  
Dew Point 34 °F    
Average Humidity 90    
Maximum Humidity 96    
Minimum Humidity 81    
Precipitation  
Precipitation 0.00 in - - ()
Sea Level Pressure  
Sea Level Pressure 30.24 in    
Wind  
Wind Speed 2 mph (West)    
Max Wind Speed 9 mph    
Max Gust Speed -    
Visibility 4 miles    
Events      
Averages and records for this station are not official NWS values.
T = Trace of Precipitation, MM = Missing Value Source: NWS Daily Summary

Daily Weather History Graph

Daily Weather History Graph

Search for Another Location

Airport or City:

Trip Planner

Search our weather history database for the weather conditions in past years. The results will help you decide how hot, cold, wet, or windy it might be!

Date:

Astronomy

Nov. 18, 2010 Rise Set
Actual Time 7:18 AM EST 5:12 PM EST
Civil Twilight 6:49 AM EST 5:41 PM EST
Nautical Twilight 6:16 AM EST 6:14 PM EST
Astronomical Twilight 5:44 AM EST 6:46 PM EST
Moon 3:11 PM EST (11/18) 4:14 AM EST (11/18)
Length of Visible Light 10h 52m
Length of Day
9h 54m
Waxing Gibbous, 91% of the Moon is Illuminated
Nov 18
Waxing Gibbous
Nov 21
Full
Nov 28
Last Quarter
Dec 5
New
Dec 13
First Quarter

Hourly Weather History & Observations

Time (EST) Temp. Windchill Dew Point Humidity Pressure Visibility Wind Dir Wind Speed Gust Speed Precip Events Conditions
12:53 AM 30.0 °F - 28.0 °F 92% 30.16 in 5.0 mi Calm Calm - N/A   Clear
2:53 AM 28.0 °F - 27.0 °F 96% 30.18 in 4.0 mi Calm Calm - N/A   Clear
3:53 AM 28.0 °F - 27.0 °F 96% 30.18 in 6.0 mi Calm Calm - N/A   Mostly Cloudy
4:53 AM 33.1 °F 30.0 °F 30.9 °F 92% 30.18 in 5.0 mi West 3.5 mph - N/A   Clear
5:53 AM 34.0 °F 31.0 °F 32.0 °F 92% 30.19 in 4.0 mi SW 3.5 mph - N/A   Clear
6:53 AM 34.0 °F 28.8 °F 33.1 °F 96% 30.21 in 4.0 mi SW 5.8 mph - N/A   Clear
7:26 AM 35.6 °F 31.7 °F 33.8 °F 93% 30.19 in 2.5 mi SW 4.6 mph - N/A   Mist
7:53 AM 35.1 °F 31.0 °F 34.0 °F 96% 30.22 in 2.5 mi WSW 4.6 mph - N/A   Partly Cloudy
8:41 AM 37.4 °F 34.9 °F 35.6 °F 93% 30.22 in 3.0 mi Variable 3.5 mph - N/A   Scattered Clouds
8:48 AM 37.4 °F 34.9 °F 35.6 °F 93% 30.22 in 3.0 mi NW 3.5 mph - N/A   Mostly Cloudy
8:53 AM 37.0 °F - 35.1 °F 93% 30.25 in 3.0 mi Calm Calm - N/A   Mostly Cloudy
1:38 PM 42.8 °F 38.6 °F 37.4 °F 81% 30.21 in 3.0 mi WNW 6.9 mph - N/A   Overcast
2:29 PM 42.8 °F 38.6 °F 37.4 °F 81% 30.21 in 5.0 mi WNW 6.9 mph - N/A   Haze
2:53 PM 43.0 °F 37.7 °F 37.9 °F 82% 30.24 in 5.0 mi NW 9.2 mph - N/A   Haze
3:41 PM 42.8 °F 38.6 °F 37.4 °F 81% 30.22 in 5.0 mi NW 6.9 mph - N/A   Overcast
3:53 PM 42.1 °F 38.4 °F 37.9 °F 85% 30.24 in 5.0 mi NNW 5.8 mph - N/A   Overcast
4:53 PM 42.1 °F - 37.9 °F 85% 30.26 in 5.0 mi Calm Calm - N/A   Overcast
5:53 PM 42.1 °F - 37.0 °F 82% 30.26 in 7.0 mi Calm Calm - N/A   Overcast
6:53 PM 41.0 °F 39.0 °F 37.9 °F 89% 30.28 in 7.0 mi WSW 3.5 mph - N/A   Overcast
7:53 PM 39.9 °F 36.7 °F 37.0 °F 89% 30.29 in 7.0 mi West 4.6 mph - N/A   Overcast
9:53 PM 37.9 °F - 35.1 °F 89% 30.30 in 7.0 mi Calm Calm - N/A   Overcast
10:53 PM 35.1 °F - 33.1 °F 92% 30.29 in 6.0 mi Calm Calm - N/A   Overcast
11:40 PM 32.0 °F - 30.2 °F 93% 30.28 in 1.5 mi Calm Calm - N/A   Clear
11:43 PM 32.0 °F - 30.2 °F 93% 30.28 in 0.8 mi Calm Calm - N/A   Clear
11:53 PM 32.0 °F - 30.9 °F 96% 30.30 in 2.0 mi Calm Calm - N/A   Clear
11:59 PM 32.0 °F - 30.2 °F 93% 30.29 in 3.0 mi Calm Calm - N/A   Clear